Location: *
(40.7873°S, 98.7174°E)
Time: 00:51:49
(UTC+00:00)

ARIANE 6 FM1 Upper Stage - Pass Details

Date: 16 December 2025
Orbit: 522 x 610 km, 62.0° (Epoch: 20 January)

Event Time Altitude Azimuth Distance (km) Brightness Sun altitude
Rises 18:47:56 0° 212° (SSW) 2,909 6.8 -22.8°
Reaches altitude 10° 18:50:21 10° 204° (SSW) 1,993 6.0 -22.6°
Maximum altitude 18:54:38 40° 133° (SE) 903 4.1 -22.3°
Drops below altitude 10° 18:58:48 10° 62° (ENE) 1,938 5.4 -22.0°
Enters shadow 19:00:36 - 56° (NE) 2,618 6.0 -21.8°
